GFSCGP_700_temp_078.txt.gz
Temp
-6 -6 -6 -6 -5 -5 -5 -4 -4 -3 -2 -2 -2 -2 -1 -0 0 1 1 2 2 2 2 2 3 2 2 2 2 2 1 2 3 4 4 3 4 3 3 4 3 3 4 4
-6 -5 -5 -5 -4 -4 -4 -4 -3 -3 -2 -2 -2 -2 -1 -1 -0 1 1 1 2 1 1 2 2 2 2 2 2 1 1 2 2 3 3 3 3 3 4 3 3 3 3 3
-6 -5 -5 -4 -4 -4 -3 -3 -3 -2 -2 -2 -2 -2 -2 -2 0 -0 0 1 2 1 1 1 1 0 2 3 2 2 3 1 1 2 2 2 3 4 4 4 4 4 3 4
-5 -5 -4 -4 -3 -3 -2 -3 -2 -2 -3 -2 -1 -1 -2 -1 -1 -0 0 1 1 1 1 1 1 1 1 1 2 2 1 2 2 2 2 2 2 2 3 2 3 3 3 3
-4 -4 -4 -4 -3 -3 -3 -3 -3 -2 -2 -2 -2 -1 -3 -1 -1 -0 1 1 0 1 1 2 1 1 2 2 2 2 2 2 3 3 3 2 2 1 1 2 2 2 3 3
-4 -4 -4 -4 -3 -2 -2 -2 -2 -2 -2 -1 -2 -2 -3 -3 -1 -0 1 1 1 1 1 1 1 1 1 2 2 2 3 3 3 2 3 3 3 2 3 2 2 1 1 1
-4 -4 -4 -3 -3 -2 -2 -2 -1 -0 -0 -0 -2 -2 -4 -2 -0 0 0 1 1 -0 -0 -0 0 1 2 2 3 2 2 2 2 3 3 3 3 3 2 2 3 2 2 2
-4 -3 -3 -2 -2 -2 -2 -2 0 1 1 -1 -2 -2 -3 -2 -1 -0 0 -0 -0 0 0 0 -0 1 1 2 2 2 2 2 2 2 3 3 2 2 2 3 3 3 3 3
-3 -3 -3 -2 -2 -2 -2 -2 -2 -1 -1 1 -3 -3 -3 -2 -1 -1 -1 -0 -1 -1 -0 -0 1 1 1 2 2 2 2 2 2 2 2 2 2 2 2 2 2 2 3 2
-3 -3 -3 -2 -2 -2 -1 -0 0 0 1 0 -1 -1 -2 -2 -2 -1 -1 -1 -1 -1 -0 0 1 1 2 1 2 2 2 2 2 2 2 1 1 2 2 2 2 2 2 2
-3 -3 -2 -2 -1 -1 -0 -0 0 -0 -0 3 2 -1 -3 -2 -1 -1 -1 -1 -1 -1 -0 -0 1 1 1 1 1 1 1 1 1 1 1 1 1 1 2 2 2 2 2 2
-2 -3 -3 -3 -2 -1 -0 0 1 2 -0 -1 1 -1 -2 -2 -1 -0 0 -0 -0 -0 0 1 1 1 1 1 0 0 1 1 1 1 1 1 1 1 2 2 2 2 2 2
-2 -2 -2 -1 -1 -0 -0 0 1 1 1 -1 2 -1 -2 -2 -1 -1 -0 -0 -0 0 0 0 0 0 0 0 0 0 1 1 1 1 1 1 2 2 2 2 2 2 2 2
-1 -1 -1 -0 -2 -1 -1 -0 0 1 1 1 -0 -1 -2 -1 -1 -1 -1 -1 -0 -0 -0 -0 -0 -0 0 0 0 0 1 1 1 1 1 1 1 1 2 2 2 2 2 2
-1 -1 -1 -2 -2 -1 -1 -1 -0 -0 -0 0 -0 -0 -0 -1 -1 -1 -1 -1 -1 -1 -1 -1 -1 -1 -0 -0 -0 0 0 1 1 1 1 1 1 1 1 2 2 2 2 2
-1 -2 -1 -1 -1 -1 -1 -1 -1 -1 -1 -1 -0 -1 -1 -1 -1 -1 -1 -1 -1 -1 -1 -1 -1 -1 -1 -1 -1 -1 -1 -1 -1 -1 -0 -0 0 0 0 1 1 1 1 1
-1 -1 -1 -2 -1 -1 -0 -1 -1 -2 -1 -1 -1 -1 -1 -1 -1 -1 -2 -2 -2 -2 -2 -2 -2 -2 -2 -2 -1 -1 -1 -1 -1 -1 -1 -1 -1 -1 -1 -0 -0 -0 0 0
-1 -1 -1 -2 -2 -0 -2 -1 -1 -1 -1 -1 -1 -1 -1 -1 -2 -2 -2 -2 -2 -3 -3 -3 -3 -3 -3 -3 -3 -2 -2 -2 -1 -1 -1 -1 -1 -1 -1 -1 -1 -1 -1 -1
-2 -1 -2 -2 -2 -2 -2 -2 -1 -2 -1 -1 -1 -1 -1 -2 -2 -2 -3 -3 -3 -3 -3 -3 -3 -3 -3 -3 -3 -3 -3 -3 -2 -2 -2 -2 -1 -1 -1 -1 -1 -1 -1 -1
-2 -2 -1 -1 -1 0 -2 -2 -2 -2 -2 -1 -2 -2 -2 -3 -3 -3 -3 -3 -3 -3 -3 -3 -3 -3 -3 -3 -4 -4 -4 -4 -4 -4 -4 -4 -3 -3 -2 -2 -2 -2 -2 -2
-2 -2 -2 -2 -2 -2 -2 -2 -2 -2 -2 -2 -2 -2 -3 -3 -3 -3 -3 -3 -4 -4 -4 -4 -4 -4 -5 -5 -5 -5 -5 -5 -5 -5 -5 -5 -5 -4 -4 -4 -3 -3 -3 -3
-2 -3 -3 -3 -3 -2 -2 -2 -2 -2 -2 -2 -3 -3 -3 -4 -4 -4 -4 -4 -4 -4 -5 -5 -5 -6 -6 -6 -6 -6 -6 -6 -6 -6 -6 -5 -5 -5 -5 -4 -4 -4 -4 -4
-3 -2 -3 -2 -2 -2 -2 -2 -2 -2 -2 -3 -3 -3 -4 -4 -4 -4 -4 -4 -4 -5 -5 -6 -6 -7 -7 -7 -7 -7 -7 -7 -7 -7 -6 -6 -6 -5 -5 -5 -5 -5 -4 -5
-3 -3 -3 -2 -2 -2 -2 -2 -3 -3 -3 -3 -3 -3 -4 -4 -4 -4 -5 -5 -6 -6 -7 -7 -7 -8 -8 -8 -8 -9 -8 -8 -7 -7 -7 -7 -6 -6 -6 -6 -5 -5 -5 -6
-3 -3 -2 -2 -2 -2 -2 -2 -3 -3 -3 -4 -4 -4 -4 -4 -5 -5 -5 -6 -7 -7 -8 -8 -9 -9 -9 -9 -9 -9 -9 -8 -8 -8 -8 -8 -7 -7 -7 -7 -6 -6 -6 -5
-2 -2 -2 -2 -2 -2 -2 -3 -3 -3 -4 -4 -4 -4 -5 -5 -6 -6 -7 -7 -8 -9 -9 -10 -10 -10 -10 -10 -10 -10 -11 -10 -10 -10 -10 -10 -10 -10 -9 -8 -8 -7 -6 -6

GFSCGP_700_temp_081.txt.gz
Temp
-6 -6 -6 -5 -5 -5 -5 -5 -4 -4 -3 -3 -3 -1 -1 -1 -0 -0 0 1 1 1 2 1 2 2 2 2 3 2 2 2 2 2 3 3 4 4 4 4 4 5 4 5
-6 -6 -5 -5 -5 -5 -5 -4 -4 -4 -3 -3 -2 -2 -1 -1 -1 -0 0 0 1 1 2 1 2 2 2 2 3 2 2 2 2 2 3 3 2 3 4 4 3 3 3 4
-6 -5 -5 -5 -4 -4 -5 -4 -4 -3 -2 -3 -2 -2 -2 -1 -1 -1 -0 -0 1 1 1 0 1 1 2 2 2 2 2 2 1 2 2 2 2 2 2 3 3 3 3 3
-5 -5 -4 -4 -4 -4 -4 -2 -3 -3 -2 -1 -2 -0 -1 -1 -1 -0 -0 -0 1 1 1 0 1 1 0 1 1 2 2 2 1 1 2 2 2 2 2 2 2 2 3 3
-5 -4 -4 -4 -3 -3 -3 -3 -3 -3 -2 -2 -2 0 -3 -1 -1 -0 -1 -0 1 1 1 2 0 0 0 1 1 1 1 1 2 2 1 2 2 2 1 2 2 2 2 2
-4 -4 -4 -4 -3 -3 -3 -2 -2 -2 -2 -1 -2 -1 -3 -3 -1 -1 -1 -1 0 1 1 1 1 1 1 1 1 1 2 2 2 2 2 2 1 2 1 1 1 2 2 2
-4 -4 -4 -4 -3 -2 -2 -2 -1 -0 -0 -1 -2 -1 -4 -3 -1 -1 -1 -0 1 1 1 1 0 0 0 0 1 1 2 2 2 3 3 3 2 2 2 2 2 2 2 2
-3 -2 -3 -3 -2 -2 -2 -2 -1 1 1 -1 -2 -3 -4 -3 -1 -1 -0 0 1 1 0 1 -0 -0 -0 0 1 2 2 2 2 2 2 2 2 2 2 2 2 2 2 2
-3 -3 -3 -2 -2 -2 -2 -1 -1 1 2 1 -2 -3 -3 -2 -1 -1 -0 0 -0 -0 -0 -0 -0 -0 0 0 1 1 1 2 2 2 2 2 2 2 2 2 2 2 2 2
-3 -3 -2 -2 -2 -1 -2 -1 0 1 2 1 0 -0 -2 -2 -1 -1 -1 -0 -0 -0 -1 -0 -1 -0 1 1 1 1 1 2 2 2 2 2 2 1 1 1 1 1 2 2
-3 -3 -2 -2 -1 -1 -1 -0 1 1 1 4 2 -0 -1 -3 -2 -1 -1 -1 -1 -1 -1 -1 -1 -0 0 1 1 1 1 1 1 1 1 1 1 1 1 1 1 1 2 2
-2 -2 -2 -1 -1 -1 -2 -1 0 2 2 2 3 -0 -2 -2 -2 -1 -2 -1 -1 -1 -1 -1 -1 -1 -0 0 0 0 0 1 1 1 1 1 1 1 1 1 2 2 2 2
-2 -1 -1 0 0 -0 -1 -1 -0 0 1 1 4 -0 -3 -1 -1 -2 -2 -1 -1 -1 -1 -1 -1 -0 -0 -0 -0 0 0 0 0 1 1 1 1 1 1 1 1 2 2 2
-1 -2 -2 0 -2 -2 -1 -0 0 1 1 3 1 -1 -2 -2 -2 -2 -2 -1 -1 -1 -1 -1 -1 -1 -1 -0 -0 -0 0 0 0 1 1 1 1 1 1 2 2 2 2 2
-1 -2 -1 -2 -2 -1 -1 -1 -1 0 0 1 0 -0 -2 -2 -2 -1 -1 -1 -1 -1 -1 -1 -1 -1 -0 -0 -0 -0 0 0 1 1 1 1 1 1 1 1 1 1 1 1
-0 -1 -1 -1 -1 -2 -1 -1 -1 -1 -1 -0 -0 -1 -2 -1 -1 -1 -1 -1 -1 -1 -1 -1 -1 -1 -1 -1 -1 -1 -1 -0 -0 -0 -0 -0 0 0 0 0 0 0 0 1
0 -0 -1 -1 -1 -1 0 -1 -1 -1 -1 -1 0 -0 0 -0 -1 -1 -1 -1 -1 -1 -1 -1 -2 -2 -2 -2 -2 -2 -1 -1 -1 -1 -1 -1 -1 -1 -1 -1 -1 -0 -0 -0
-1 -1 -1 -1 -0 1 -1 -1 -1 -1 -1 -1 -1 -1 -1 -1 -1 -1 -1 -2 -2 -2 -2 -2 -2 -2 -2 -1 -1 -1 -1 -1 -1 -2 -2 -2 -2 -2 -2 -1 -1 -1 -1 -1
-0 -1 -1 -0 1 -0 -1 -0 -1 -1 -1 -1 -1 -1 -1 -2 -2 -2 -2 -2 -3 -3 -3 -3 -3 -3 -3 -3 -3 -3 -3 -3 -3 -2 -2 -2 -2 -2 -2 -2 -2 -2 -2 -1
-1 -1 -1 -1 0 2 -1 -0 -1 -1 -1 -1 -1 -1 -1 -2 -2 -3 -2 -2 -2 -2 -2 -2 -2 -3 -3 -4 -4 -4 -4 -4 -4 -4 -4 -4 -4 -4 -4 -3 -3 -3 -3 -2
-2 -2 -1 -1 -0 -1 -1 -1 -1 -1 -1 -1 -1 -1 -2 -2 -2 -2 -3 -3 -3 -3 -3 -3 -3 -4 -5 -5 -5 -6 -6 -6 -6 -6 -6 -5 -5 -5 -4 -4 -4 -4 -4 -3
-2 -2 -1 -2 -2 -1 -1 -1 -2 -2 -2 -2 -2 -2 -3 -3 -3 -3 -3 -4 -4 -4 -4 -4 -5 -6 -6 -6 -7 -7 -7 -7 -7 -7 -7 -6 -6 -6 -5 -5 -5 -5 -4 -4
-2 -2 -2 -2 -1 -1 -1 -2 -2 -2 -2 -2 -2 -3 -3 -3 -4 -4 -4 -4 -4 -5 -5 -6 -6 -7 -7 -8 -8 -8 -8 -8 -8 -7 -7 -7 -7 -7 -6 -6 -6 -5 -5 -5
-2 -2 -2 -2 -1 -1 -2 -2 -2 -2 -3 -3 -3 -3 -3 -4 -4 -4 -4 -4 -5 -5 -6 -7 -7 -8 -9 -9 -9 -9 -8 -8 -8 -8 -8 -8 -8 -8 -8 -8 -7 -7 -6 -6
-2 -2 -2 -1 -2 -2 -2 -2 -2 -3 -3 -3 -3 -3 -3 -3 -4 -4 -4 -5 -5 -6 -7 -8 -9 -9 -9 -9 -9 -9 -10 -10 -10 -10 -10 -10 -10 -10 -10 -10 -10 -9 -9 -8
-1 -1 -2 -3 -2 -2 -2 -2 -2 -3 -3 -3 -3 -3 -4 -4 -4 -5 -5 -6 -7 -8 -9 -9 -10 -10 -9 -9 -10 -11 -11 -12 -12 -12 -12 -11 -12 -11 -11 -11 -11 -11 -11 -10

GFSCGP_700_temp_084.txt.gz
Temp
-6 -6 -6 -6 -6 -5 -5 -5 -5 -4 -4 -4 -3 -3 -1 -3 -1 -0 0 0 1 1 1 1 1 2 1 2 3 2 2 2 4 5 3 2 2 3 3 4 3 4 4 4
-6 -6 -5 -6 -5 -5 -5 -5 -5 -5 -4 -4 -3 -3 -2 -2 -1 -0 0 1 1 1 1 1 1 2 2 1 2 2 2 2 2 2 2 1 2 2 3 3 4 4 4 4
-6 -5 -5 -5 -5 -5 -4 -5 -4 -4 -4 -3 -3 -2 -2 -2 -1 -1 -1 0 1 1 1 2 2 1 1 1 2 2 3 2 2 1 1 2 2 2 3 3 3 3 3 4
-5 -5 -5 -4 -4 -4 -4 -3 -4 -4 -3 -3 -3 -3 -3 -2 -1 -0 -1 -0 -0 0 1 1 1 1 0 1 1 1 2 2 2 1 2 2 2 2 2 2 2 2 2 2
-5 -4 -4 -4 -4 -4 -3 -3 -2 -3 -3 -2 -2 -2 -3 -2 -1 -0 -1 -0 0 -0 1 1 1 0 0 0 0 0 1 2 2 1 1 1 1 2 1 1 1 2 1 2
-4 -4 -4 -4 -4 -3 -3 -3 -3 -3 -3 -1 -2 -2 -3 -3 -2 -1 -1 -0 -0 1 1 1 2 1 -0 0 1 0 0 1 1 1 1 1 1 0 0 2 1 1 2 1
-3 -3 -4 -3 -3 -3 -3 -2 -2 -2 -1 -2 -1 -1 -4 -3 -2 -1 -1 -0 -0 -0 -0 1 1 0 0 0 0 0 0 1 1 1 1 1 0 1 1 1 1 1 2 2
-3 -3 -3 -3 -2 -2 -2 -2 -2 -0 -1 -2 -2 -3 -3 -3 -2 -2 -1 -0 -0 -0 0 0 0 0 0 0 1 0 0 1 1 1 1 1 1 1 1 2 2 2 2 2
-4 -3 -3 -3 -3 -3 -2 -2 -2 -1 -1 -1 -3 -3 -3 -3 -2 -1 -1 -1 -1 -0 -0 -0 -0 -0 -0 0 0 0 1 1 1 1 2 2 2 2 1 2 2 2 2 2
-3 -3 -2 -2 -2 -2 -2 -1 -1 -1 -0 -1 -1 -2 -3 -3 -2 -1 -1 -1 -1 -0 -1 -0 -0 -0 -0 -0 -0 0 1 1 1 1 1 2 2 2 1 1 1 1 1 2
-3 -2 -2 -2 -1 -1 -1 -0 0 1 1 0 -0 -3 -3 -3 -2 -2 -1 -1 -1 -1 -1 -1 -1 -1 -1 -1 -0 -0 0 1 1 1 1 1 1 1 1 1 1 1 1 1
-2 -1 -1 -0 -0 -0 -0 0 1 1 2 2 0 -3 -3 -2 -2 -2 -2 -1 -1 -1 -1 -1 -2 -2 -1 -1 -1 -0 -0 -0 0 0 1 1 1 1 1 1 1 1 2 1
-1 -1 -1 -0 -0 -0 -0 0 2 2 2 1 -0 -3 -3 -2 -2 -2 -2 -2 -2 -2 -2 -2 -1 -1 -1 -1 -1 -0 -0 -0 0 0 0 1 1 1 1 1 1 1 2 1
-1 -1 -2 -2 -2 -1 -1 -0 1 2 1 -1 -0 -3 -2 -1 -1 -1 -1 -2 -2 -2 -2 -1 -1 -1 -1 -1 -1 -1 -0 -0 -0 0 0 0 1 1 1 1 1 2 2 2
-1 -1 -2 -1 -1 -1 -1 -0 0 0 1 0 -1 0 0 -0 -1 -1 -1 -1 -1 -1 -1 -1 -1 -1 -1 -1 -1 -1 -1 -1 -1 -0 -0 -0 -0 -0 -0 0 0 1 1 1
0 -0 -1 -1 -1 -0 0 0 0 0 -0 -0 -1 -2 -2 -2 -1 -1 -1 -1 -1 -1 -1 -1 -1 -1 -1 -1 -1 -1 -1 -1 -1 -1 -1 -1 -1 -1 -1 -1 -0 -0 -0 -0
0 -0 -0 -1 -1 -1 -0 -0 -0 -0 -0 -0 -0 -1 -1 -1 -1 -1 -1 -1 -1 -1 -2 -2 -1 -2 -2 -2 -2 -2 -2 -2 -2 -1 -1 -1 -2 -2 -1 -1 -1 -1 -1 -1
-0 -0 -0 0 0 -3 -0 -1 -1 -0 -1 -1 -1 -1 -1 -1 -1 -1 -1 -2 -2 -2 -2 -2 -2 -2 -2 -2 -2 -2 -2 -2 -2 -2 -3 -3 -3 -3 -3 -2 -2 -2 -2 -2
-0 -1 -1 -0 0 -0 0 -0 -0 -0 -1 -1 -1 -1 -1 -1 -2 -2 -2 -2 -2 -2 -2 -3 -3 -2 -2 -2 -2 -3 -3 -3 -3 -4 -4 -4 -4 -3 -3 -3 -3 -3 -3 -3
-0 -0 -1 -1 -0 0 0 -0 -0 -0 -1 -1 -1 -1 -1 -2 -2 -2 -2 -3 -3 -3 -3 -3 -3 -3 -3 -4 -4 -5 -5 -5 -4 -5 -5 -5 -5 -5 -5 -5 -4 -4 -4 -4
-0 -0 -1 -1 -1 -0 -0 -1 -1 -1 -1 -1 -1 -1 -1 -1 -2 -2 -3 -3 -3 -3 -3 -3 -4 -4 -4 -5 -6 -6 -6 -6 -6 -6 -6 -6 -6 -6 -6 -5 -5 -5 -5 -4
-1 -1 -1 -1 -2 -2 -1 -1 -1 -1 -1 -1 -1 -1 -2 -2 -2 -2 -2 -3 -3 -3 -4 -4 -4 -5 -6 -7 -7 -7 -8 -8 -8 -7 -7 -7 -7 -7 -7 -7 -6 -6 -6 -6
-1 -1 -1 -1 -1 -1 -1 -1 -1 -1 -1 -1 -2 -2 -2 -2 -3 -3 -3 -3 -4 -4 -4 -5 -5 -5 -6 -7 -8 -8 -8 -8 -8 -9 -9 -9 -9 -8 -8 -8 -8 -7 -7 -7
-1 -1 -2 -1 -1 -1 -1 -1 -2 -2 -2 -2 -2 -2 -2 -3 -3 -3 -3 -4 -4 -4 -5 -5 -6 -7 -8 -8 -9 -8 -9 -9 -9 -10 -10 -10 -10 -10 -10 -10 -10 -9 -9 -9
-1 -1 -1 -1 -1 -1 -1 -1 -1 -2 -2 -2 -2 -2 -2 -3 -3 -3 -4 -4 -4 -5 -6 -6 -7 -8 -8 -8 -9 -9 -10 -11 -11 -11 -11 -12 -12 -12 -12 -12 -11 -11 -11 -11
0 0 -1 -1 -1 -1 -1 -1 -1 -1 -2 -2 -2 -2 -3 -3 -4 -4 -4 -5 -5 -6 -7 -8 -8 -9 -9 -10 -10 -11 -12 -12 -13 -13 -13 -13 -13 -13 -13 -13 -12 -12 -12 -12

GFSCGP_700_temp_087.txt.gz
Temp
-6 -6 -5 -5 -6 -6 -6 -6 -5 -3 -3 -5 -4 -3 -2 -2 -3 -2 -1 -0 0 1 1 0 0 1 2 2 2 2 2 2 2 2 4 5 4 2 3 3 2 4 4 4
-5 -4 -5 -5 -5 -6 -6 -5 -5 -4 -3 -4 -4 -3 -1 -3 -2 -2 -1 -1 -0 0 -0 0 0 1 1 1 2 1 1 2 2 2 3 4 4 3 4 3 3 2 3 4
-4 -3 -4 -5 -5 -5 -5 -5 -4 -5 -5 -4 -4 -3 -2 -3 -3 -2 -1 -1 -0 -0 0 1 1 1 1 2 2 2 1 2 2 2 3 3 3 3 3 2 2 2 2 2
-4 -3 -4 -4 -4 -5 -5 -3 -4 -4 -4 -4 -3 -4 -2 -2 -2 -2 -1 -1 -1 -0 -0 -0 -0 1 1 1 3 2 1 3 2 2 2 3 2 2 1 2 2 2 2 2
-3 -3 -4 -4 -4 -4 -4 -3 -3 -3 -4 -4 -3 -3 -3 -2 -2 -2 -1 -0 -0 0 0 -1 -0 0 0 0 2 1 1 1 1 2 2 2 1 2 1 1 1 0 1 2
-3 -4 -4 -4 -4 -3 -3 -3 -3 -3 -3 -3 -2 -3 -3 -3 -3 -2 -0 0 -0 0 1 0 0 0 0 0 2 0 0 1 1 1 1 1 1 2 1 2 1 1 2 1
-3 -3 -4 -3 -3 -3 -3 -3 -2 -2 -3 -2 -2 -2 -3 -3 -3 -2 -2 -1 -1 -0 -0 0 -0 -0 0 -0 0 0 0 0 0 0 0 0 0 1 1 1 1 1 1 1
-4 -3 -3 -3 -3 -3 -3 -2 -3 -1 -2 -2 -2 -4 -4 -3 -3 -2 -1 -1 -1 -1 -1 -0 -0 -0 -1 -0 -0 -0 -0 0 -0 0 0 0 0 0 1 1 0 0 1 1
-3 -3 -3 -2 -2 -3 -2 -3 -2 -2 -1 -2 -3 -3 -3 -3 -3 -2 -1 -1 -1 -1 -0 -0 -0 -0 -0 -0 -0 -0 0 0 0 0 0 0 0 0 0 0 0 0 1 1
-3 -3 -2 -2 -2 -1 -2 -2 -2 -2 -1 -1 -2 -3 -3 -3 -3 -2 -2 -1 -1 -1 -1 -1 -1 -1 -0 -0 0 0 0 0 0 1 1 1 1 1 1 1 1 1 1 1
-3 -2 -1 -1 -1 -0 -1 -0 -0 -0 0 -1 -2 -3 -3 -3 -2 -2 -1 -1 -1 -1 -1 -1 -1 -1 -1 -1 -1 -0 -0 -0 0 0 0 1 1 1 1 1 1 1 1 1
-2 -2 -1 -1 -1 -0 -1 0 1 1 0 -0 -2 -4 -3 -2 -2 -2 -2 -1 -1 -1 -1 -1 -2 -2 -2 -2 -1 -1 -1 -1 -0 0 0 0 0 1 1 1 1 1 1 1
-2 -1 -1 -0 -0 0 -0 1 2 2 1 -1 -3 -4 -4 -2 -2 -2 -2 -2 -2 -2 -2 -2 -2 -1 -1 -1 -1 -0 -0 -0 -0 0 0 0 1 1 1 1 1 1 1 1
-1 -2 -2 -2 -2 -2 -1 0 1 2 1 -1 -0 -1 -2 -1 -1 -1 -1 -1 -1 -1 -1 -1 -1 -1 -1 -1 -1 -1 -1 -1 -1 -0 -0 -0 0 0 1 1 1 1 1 1
-1 -1 -1 -2 -1 -1 -0 -0 0 1 0 1 -0 -0 -1 -1 -1 -1 -1 -1 -1 -1 -1 -1 -1 -1 -1 -1 -1 -1 -1 -1 -1 -1 -1 -0 -0 -0 0 0 0 0 0 0
-0 -1 -1 -1 -1 -0 -0 0 -0 -0 -0 -1 -1 -1 -1 -1 -1 -1 -1 -1 -1 -1 -1 -1 -1 -2 -2 -2 -2 -2 -2 -2 -1 -1 -1 -1 -1 -1 -1 -1 -1 -1 -0 -0
-0 -0 -1 -0 -1 -0 0 -0 -0 -1 -1 -1 -1 -1 -1 -1 -1 -1 -1 -1 -1 -1 -2 -2 -2 -2 -2 -2 -2 -2 -2 -2 -2 -2 -2 -2 -2 -2 -2 -2 -2 -2 -2 -2
0 0 -0 -0 -0 -4 -0 -0 -0 -1 -1 -1 -1 -1 -2 -1 -1 -1 -1 -2 -2 -2 -2 -2 -2 -2 -2 -3 -3 -2 -3 -3 -3 -3 -3 -3 -4 -4 -4 -4 -3 -3 -3 -3
-0 0 -0 -0 -0 -1 -1 -0 -0 -0 -1 -1 -1 -1 -2 -2 -2 -2 -2 -2 -2 -3 -3 -3 -3 -3 -3 -3 -3 -3 -3 -4 -4 -5 -5 -5 -5 -5 -5 -5 -5 -5 -4 -4
-0 -0 0 -0 -1 -1 -0 -0 -0 -1 -1 -1 -1 -1 -1 -2 -2 -2 -3 -3 -3 -3 -3 -4 -4 -4 -4 -4 -4 -5 -5 -5 -6 -6 -6 -6 -6 -6 -5 -5 -5 -5 -5 -5
-0 -0 -1 -1 -1 -0 -1 -1 -1 -1 -1 -1 -1 -1 -1 -2 -2 -2 -3 -3 -3 -4 -4 -4 -4 -4 -4 -5 -5 -6 -6 -7 -7 -7 -7 -7 -6 -6 -6 -6 -6 -6 -6 -6
-1 -1 -1 -1 -2 -2 -1 -1 -1 -0 -0 -1 -1 -1 -1 -2 -2 -2 -3 -3 -3 -3 -3 -3 -4 -4 -5 -6 -6 -7 -7 -7 -8 -8 -8 -8 -9 -9 -8 -8 -8 -8 -8 -8
-1 -0 -1 -1 -0 -1 -0 -1 -1 -1 -1 -1 -1 -2 -2 -2 -2 -3 -3 -3 -3 -4 -4 -4 -5 -5 -6 -7 -7 -7 -8 -8 -8 -9 -9 -10 -10 -10 -10 -10 -10 -10 -10 -10
-1 -1 -1 -1 0 -0 -1 -1 -1 -1 -1 -2 -2 -2 -2 -3 -3 -3 -3 -4 -4 -4 -5 -5 -6 -6 -7 -7 -8 -9 -9 -10 -11 -11 -11 -11 -12 -12 -12 -12 -12 -12 -12 -12
-1 -1 -0 0 -0 -0 -0 -1 -1 -1 -1 -2 -2 -2 -2 -3 -3 -3 -3 -4 -4 -5 -5 -6 -6 -7 -7 -8 -9 -10 -11 -12 -12 -12 -13 -13 -13 -13 -13 -13 -13 -13 -13 -13
1 1 0 1 0 -0 -0 -1 -1 -1 -2 -2 -2 -2 -2 -3 -3 -3 -4 -4 -5 -5 -6 -6 -7 -8 -8 -9 -10 -11 -12 -12 -13 -13 -14 -14 -14 -14 -14 -14 -14 -14 -14 -13

GFSCGP_700_temp_090.txt.gz
Temp
-5 -5 -4 -5 -5 -5 -6 -6 -6 -3 -4 -6 -3 -3 -2 -2 -3 -3 -3 -2 -1 0 1 0 1 2 2 2 2 2 3 2 2 2 2 2 2 3 3 3 3 3 3 4
-5 -5 -5 -5 -4 -5 -6 -6 -4 -3 -4 -5 -5 -3 -2 -2 -2 -2 -2 -2 -1 -0 0 1 1 1 1 1 1 2 2 2 2 2 2 2 2 2 4 2 3 2 2 2
-5 -5 -4 -4 -4 -5 -4 -5 -3 -4 -4 -4 -4 -3 -2 -2 -2 -2 -2 -1 -1 -1 -0 0 1 1 0 1 1 1 2 2 3 2 2 2 2 2 3 3 2 3 2 1
-6 -4 -4 -4 -4 -4 -5 -3 -4 -4 -4 -4 -4 -5 -2 -3 -2 -2 -2 -1 -1 -0 -0 0 -0 0 0 0 1 2 2 2 2 3 2 2 2 3 3 4 2 2 2 2
-4 -4 -4 -4 -3 -4 -2 -3 -3 -3 -4 -4 -4 -4 -3 -2 -2 -2 -2 -1 -1 -0 -0 -1 0 -1 0 -0 -0 1 1 1 2 1 1 2 2 2 3 2 2 2 2 1
-3 -4 -3 -3 -3 -3 -3 -3 -3 -3 -3 -4 -2 -3 -3 -3 -4 -3 -2 -1 -1 -0 -0 -1 -0 -1 -0 -0 0 1 1 1 2 0 2 1 2 1 1 2 2 1 1 1
-4 -3 -4 -3 -2 -3 -2 -3 -3 -3 -4 -3 -3 -3 -4 -4 -3 -4 -2 -2 -1 -1 -1 -1 -0 -1 0 -0 0 1 0 1 1 1 0 1 1 0 1 1 1 1 1 1
-4 -2 -3 -2 -2 -2 -3 -3 -3 -1 -2 -4 -2 -3 -4 -4 -4 -3 -2 -2 -2 -1 -1 -1 -1 -0 -1 -1 -0 -0 -0 -0 -0 -0 -0 0 -0 0 0 0 1 1 1 0
-3 -3 -3 -2 -2 -2 -2 -3 -2 -2 -2 -2 -3 -3 -4 -4 -4 -3 -2 -2 -2 -2 -2 -1 -1 -1 -1 -1 -1 -1 -1 -1 -1 -0 -0 -0 -0 0 0 0 0 1 1 1
-3 -3 -2 -2 -2 -2 -3 -3 -3 -2 -2 -1 -3 -3 -3 -4 -3 -2 -2 -2 -2 -2 -2 -1 -1 -1 -1 -1 -0 -1 -0 -0 -0 -0 -0 0 0 0 1 0 -0 -0 0 0
-3 -3 -1 -1 -1 -1 -2 -2 -2 -1 -1 -2 -2 -3 -3 -3 -3 -3 -2 -2 -2 -2 -2 -1 -1 -1 -1 -1 -2 -1 -1 -1 -0 0 0 0 0 0 1 1 0 0 0 0
-2 -2 -1 -0 -1 -1 -1 -1 -0 0 -0 -1 -2 -3 -3 -2 -2 -2 -2 -2 -2 -2 -1 -1 -1 -1 -2 -2 -1 -1 -0 -0 0 0 0 0 1 1 1 1 1 1 1 1
-2 -2 -1 0 0 -0 -1 0 1 1 0 -2 -3 -2 -3 -3 -2 -2 -2 -2 -2 -2 -2 -2 -2 -2 -1 -1 -1 -1 -1 -0 -0 0 0 0 0 0 0 1 1 1 1 1
-1 -2 -2 -2 -2 -2 -1 0 1 1 1 -1 -0 -1 -2 -2 -2 -1 -2 -2 -2 -2 -2 -2 -2 -2 -2 -1 -1 -1 -1 -1 -1 -1 -0 -0 0 0 0 1 1 1 1 1
-1 -1 -1 -1 -1 -1 -1 -0 1 2 1 1 -0 -0 -1 -1 -1 -1 -1 -1 -2 -2 -2 -2 -2 -2 -2 -2 -2 -1 -1 -1 -1 -1 -1 -1 -1 -0 -0 -0 -0 0 0 0
-1 -1 -1 -1 -1 -1 -1 -1 -0 -0 -0 -0 -1 -1 -1 -1 -2 -2 -2 -2 -2 -2 -2 -2 -2 -2 -2 -2 -2 -2 -2 -2 -1 -1 -1 -1 -1 -1 -1 -1 -1 -1 -1 -1
-0 -0 -1 -0 -0 -0 -0 -0 -0 -1 -1 -0 -1 -0 -0 -1 -1 -1 -2 -2 -2 -2 -2 -2 -2 -2 -2 -2 -2 -2 -2 -2 -2 -2 -1 -2 -2 -2 -2 -2 -2 -2 -2 -2
-0 -0 -0 -0 -0 -4 0 -0 -0 -0 -0 -0 -0 -0 -1 -1 -1 -1 -1 -2 -2 -2 -2 -2 -2 -2 -2 -2 -2 -2 -2 -2 -2 -2 -3 -3 -4 -4 -4 -4 -3 -3 -3 -3
-0 -0 -0 -0 -1 -0 0 0 0 0 0 -0 -0 -1 -1 -1 -2 -2 -2 -2 -2 -2 -2 -2 -2 -2 -3 -2 -2 -3 -3 -3 -4 -4 -5 -5 -5 -5 -5 -5 -5 -5 -4 -4
-0 -0 -1 -1 -1 -2 0 -0 -0 -1 -1 -1 -1 -1 -2 -2 -2 -2 -3 -2 -3 -3 -3 -3 -3 -3 -4 -4 -4 -4 -4 -5 -5 -5 -6 -5 -5 -5 -5 -5 -5 -5 -6 -6
-0 -1 -1 -1 -0 0 0 -0 -1 -1 -0 -1 -1 -1 -2 -2 -2 -2 -3 -3 -3 -3 -3 -4 -4 -4 -4 -5 -5 -5 -6 -6 -6 -6 -6 -6 -7 -7 -7 -7 -7 -7 -7 -7
-0 -0 -1 -1 -1 -2 -0 -0 -1 -0 -1 -1 -1 -1 -2 -2 -2 -2 -3 -3 -3 -3 -4 -4 -4 -4 -5 -5 -5 -5 -5 -6 -6 -7 -8 -8 -8 -9 -9 -10 -10 -10 -10 -10
-1 -0 -0 -0 0 0 -0 -0 -1 -1 -1 -1 -1 -1 -2 -2 -2 -3 -3 -3 -3 -4 -4 -4 -4 -4 -5 -5 -6 -6 -7 -7 -8 -9 -9 -10 -11 -11 -11 -11 -11 -11 -11 -12
-1 -1 -1 -0 1 0 -0 -0 -0 -1 -1 -1 -2 -2 -2 -2 -3 -3 -3 -3 -4 -4 -4 -5 -5 -5 -6 -6 -7 -7 -8 -8 -9 -10 -10 -11 -12 -12 -12 -13 -13 -13 -13 -13
-1 -1 -0 0 0 -0 -0 -0 -1 -1 -1 -2 -2 -2 -2 -3 -3 -3 -4 -4 -5 -5 -5 -5 -6 -6 -7 -7 -7 -8 -9 -10 -10 -11 -11 -12 -13 -13 -14 -14 -14 -14 -14 -14
1 2 1 2 1 0 0 -0 -1 -1 -1 -2 -2 -2 -2 -3 -3 -4 -4 -4 -5 -5 -5 -6 -6 -7 -7 -8 -8 -9 -10 -11 -11 -11 -12 -12 -13 -13 -14 -14 -14 -15 -15 -15

GFSCGP_700_temp_093.txt.gz
Temp
-3 -3 -3 -4 -4 -4 -4 -5 -5 -3 -4 -5 -3 -3 -1 -1 -2 -2 -2 -3 -3 -2 -1 0 0 0 0 1 1 2 2 2 2 2 2 3 3 3 2 2 2 3 3 4
-3 -3 -4 -4 -4 -5 -5 -6 -3 -4 -4 -5 -5 -3 -2 -2 -2 -2 -2 -2 -2 -2 -1 -1 0 -0 0 1 1 1 2 2 1 2 2 3 3 2 2 2 2 2 3 3
-3 -3 -4 -4 -5 -5 -5 -6 -3 -4 -4 -4 -4 -4 -3 -2 -3 -2 -2 -2 -2 -2 -1 -0 0 0 1 1 1 1 1 1 1 2 2 2 3 2 2 2 2 2 2 2
-3 -3 -4 -4 -4 -5 -6 -4 -4 -4 -4 -4 -4 -5 -3 -3 -3 -2 -2 -2 -2 -1 -1 -0 0 1 1 1 1 1 1 1 2 2 2 2 2 2 2 2 3 2 2 2
-4 -4 -4 -5 -4 -5 -4 -4 -4 -4 -3 -4 -4 -5 -3 -3 -3 -2 -2 -2 -2 -1 -1 -1 -1 -0 0 1 0 0 1 1 2 2 2 2 2 3 3 2 3 3 3 2
-4 -5 -4 -4 -4 -4 -4 -4 -3 -3 -3 -4 -3 -4 -2 -3 -3 -3 -3 -1 -1 -1 -1 -1 -1 -1 -1 -1 -1 -0 -0 1 1 1 2 1 1 2 2 2 2 3 2 1
-5 -4 -4 -4 -3 -3 -3 -4 -4 -4 -4 -4 -3 -4 -3 -3 -4 -4 -4 -3 -2 -2 -2 -1 -1 -1 -0 -1 0 -0 0 0 1 1 1 0 1 1 2 1 1 2 2 1
-4 -3 -4 -3 -3 -3 -3 -3 -3 -2 -3 -4 -3 -3 -3 -4 -4 -4 -4 -3 -3 -2 -2 -1 -2 -1 -1 -1 -0 -0 -0 -0 -0 0 0 0 1 0 0 0 1 0 0 0
-3 -3 -2 -2 -3 -3 -2 -3 -3 -3 -2 -3 -3 -3 -4 -4 -4 -3 -3 -3 -2 -2 -2 -2 -2 -1 -1 -1 -0 -1 -1 -1 -1 -1 -1 -0 -0 0 0 0 -0 -0 -0 0
-4 -3 -2 -2 -2 -3 -3 -3 -3 -3 -1 -2 -2 -3 -3 -4 -4 -3 -2 -2 -3 -3 -2 -2 -2 -2 -2 -1 -1 -1 -1 -1 -1 -1 -1 -1 -1 0 -0 0 -0 -1 -0 -0
-3 -3 -1 -1 -1 -2 -2 -2 -3 -3 -3 -2 -2 -3 -3 -3 -3 -3 -3 -3 -3 -2 -2 -2 -2 -1 -2 -3 -2 -2 -1 -1 -1 -0 0 -0 0 0 0 -0 -0 -0 -0 -1
-2 -2 -1 -0 -1 -1 -1 -2 -2 -2 -1 -2 -2 -3 -3 -2 -3 -3 -2 -3 -2 -2 -2 -2 -2 -2 -2 -2 -1 -1 -1 -1 -1 -0 -0 -0 -0 0 0 0 0 1 1 1
-2 -2 -1 0 0 -0 -1 -2 -1 -1 -1 -2 -3 -2 -3 -2 -2 -2 -3 -3 -3 -2 -2 -3 -2 -2 -2 -2 -2 -2 -1 -1 -1 -1 -1 -1 -0 -0 0 0 0 0 0 0
-2 -2 -2 -2 -2 -2 -1 -0 0 0 0 -1 -1 -1 -2 -2 -3 -2 -2 -2 -2 -2 -2 -2 -2 -2 -2 -2 -2 -2 -1 -1 -1 -1 -1 -1 -0 -0 -0 -0 0 -0 -0 -0
-1 -1 -1 -1 -1 -1 -1 -0 0 2 0 -0 -1 -1 -1 -2 -2 -2 -2 -2 -2 -2 -2 -2 -2 -2 -2 -2 -2 -2 -2 -2 -1 -1 -1 -1 -1 -1 -1 -0 -0 -0 -0 -0
-1 -1 -1 -1 -1 -1 -0 -0 -0 0 0 -0 -1 -1 -1 -1 -1 -2 -2 -2 -2 -2 -2 -2 -2 -2 -2 -2 -2 -2 -2 -1 -1 -1 -2 -1 -1 -1 -1 -1 -1 -1 -1 -1
-1 -1 -1 -0 -0 -0 -0 0 0 0 0 -0 -0 -1 -1 -1 -2 -2 -2 -2 -2 -2 -2 -2 -2 -2 -2 -2 -2 -2 -2 -2 -2 -2 -2 -2 -2 -2 -2 -2 -2 -2 -2 -2
-0 -0 -0 -0 0 -4 1 0 0 0 0 0 0 -0 -1 -1 -1 -2 -2 -2 -2 -2 -2 -2 -3 -3 -2 -2 -2 -2 -2 -2 -2 -2 -2 -2 -2 -2 -2 -3 -3 -3 -3 -3
-0 -0 -0 -1 -1 1 1 1 1 0 1 1 0 0 -0 -1 -1 -1 -2 -2 -2 -2 -2 -2 -2 -2 -2 -2 -2 -2 -2 -2 -2 -2 -2 -3 -3 -3 -3 -3 -4 -3 -3 -3
-0 -0 -1 -1 -1 -2 1 1 0 0 0 1 0 0 -0 -0 -0 -1 -1 -1 -2 -2 -2 -2 -3 -3 -3 -3 -4 -4 -4 -4 -4 -4 -4 -5 -5 -5 -6 -6 -6 -6 -6 -6
-0 -0 -1 -1 -1 1 1 0 -0 -1 0 0 -0 -1 -1 -1 -2 -2 -2 -2 -3 -3 -3 -4 -4 -4 -4 -4 -4 -4 -4 -4 -5 -5 -5 -6 -6 -7 -7 -8 -8 -8 -8 -8
-1 -1 -1 -2 -2 -1 1 0 -0 0 -0 -1 -1 -2 -2 -2 -2 -2 -3 -3 -3 -4 -4 -4 -4 -4 -4 -4 -4 -4 -5 -5 -5 -6 -7 -7 -8 -8 -9 -9 -9 -9 -10 -10
-1 -0 -0 -0 1 1 0 0 -0 -0 -1 -1 -1 -1 -2 -2 -2 -2 -3 -3 -3 -4 -4 -4 -4 -4 -5 -5 -5 -5 -5 -6 -6 -7 -8 -9 -9 -10 -10 -10 -11 -11 -11 -11
-0 -0 -1 -0 1 1 1 0 -0 -0 -1 -1 -1 -1 -1 -1 -2 -2 -3 -3 -3 -4 -4 -4 -4 -5 -5 -5 -5 -6 -7 -7 -8 -8 -9 -9 -10 -10 -11 -11 -11 -11 -12 -12
-1 -1 -0 1 2 1 1 0 -0 -0 -1 -1 -1 -1 -2 -2 -2 -3 -3 -3 -3 -4 -4 -5 -5 -5 -5 -6 -6 -7 -8 -8 -9 -9 -9 -10 -10 -11 -11 -11 -12 -12 -12 -13
2 2 2 2 2 1 1 -0 -0 -0 -1 -1 -1 -2 -2 -2 -2 -3 -3 -3 -4 -4 -5 -5 -5 -6 -6 -6 -7 -8 -8 -9 -9 -9 -10 -11 -11 -12 -12 -12 -12 -13 -13 -13

GFSCGP_700_temp_096.txt.gz
Temp
-2 -2 -3 -3 -3 -3 -3 -4 -3 -2 -3 -4 -2 -1 -0 -1 -1 -1 -1 -1 -2 -2 -2 -1 -1 0 -0 -0 0 0 1 1 2 3 3 3 4 3 3 3 4 3 3 3
-2 -3 -3 -3 -3 -3 -3 -4 -2 -2 -3 -4 -3 -1 -2 -2 -2 -2 -3 -3 -2 -2 -3 -2 -2 -0 -0 -0 -0 0 1 1 2 2 2 2 2 2 3 3 3 3 3 3
-3 -3 -3 -3 -3 -3 -4 -4 -4 -5 -4 -3 -3 -1 -2 -2 -3 -3 -3 -3 -3 -2 -2 -2 -2 -1 -0 -1 -1 0 1 1 1 2 2 2 2 2 3 3 3 2 3 2
-3 -3 -3 -3 -3 -4 -6 -5 -5 -5 -4 -4 -4 -4 -2 -3 -3 -3 -3 -3 -3 -3 -2 -2 -2 -2 -1 -1 -0 -0 1 1 1 1 1 1 2 2 3 3 2 3 3 2
-3 -3 -4 -3 -4 -5 -4 -5 -4 -4 -5 -4 -4 -5 -3 -3 -3 -3 -2 -2 -2 -3 -2 -2 -2 -2 -1 -0 -0 0 1 1 1 1 1 1 2 2 3 3 2 2 3 3
-3 -3 -3 -3 -4 -4 -4 -4 -3 -4 -4 -4 -3 -4 -3 -3 -3 -3 -2 -2 -3 -2 -2 -2 -1 -1 -1 -1 -0 1 0 1 1 2 2 2 1 2 2 2 2 1 3 3
-4 -3 -4 -4 -4 -3 -4 -4 -4 -6 -5 -5 -4 -5 -2 -4 -4 -4 -4 -4 -4 -3 -2 -2 -2 -1 -1 -0 -1 -0 -0 -0 -0 1 1 1 1 1 1 1 2 2 2 2
-3 -2 -3 -3 -3 -3 -3 -3 -4 -5 -3 -3 -3 -3 -3 -4 -4 -4 -4 -4 -3 -3 -3 -3 -2 -1 -2 -1 -1 -1 -1 -0 0 0 0 1 1 0 1 1 0 1 0 0
-3 -3 -2 -3 -3 -3 -3 -3 -3 -3 -3 -3 -3 -3 -3 -4 -4 -4 -4 -3 -3 -3 -2 -2 -2 -2 -2 -1 -1 -1 -1 -1 -1 -1 -1 -0 -0 -0 0 0 0 0 0 0
-3 -3 -2 -2 -2 -2 -3 -3 -3 -3 -2 -2 -3 -3 -3 -3 -3 -3 -3 -3 -3 -3 -3 -3 -2 -2 -2 -2 -2 -2 -2 -1 -1 -2 -2 -1 -1 -1 -0 -0 -1 -1 -1 -0
-4 -4 -2 -2 -1 -2 -2 -3 -3 -3 -3 -2 -3 -3 -3 -3 -3 -3 -3 -3 -3 -3 -3 -3 -3 -2 -2 -3 -4 -3 -3 -3 -3 -2 -1 -1 -1 -1 -0 -0 -0 -0 -1 -1
-3 -3 -1 -0 -1 -1 -2 -3 -3 -3 -2 -3 -3 -2 -3 -3 -3 -3 -4 -3 -4 -3 -3 -3 -2 -4 -3 -3 -3 -2 -2 -2 -2 -1 -1 -1 -1 -1 -1 -0 -0 0 -0 -0
-3 -2 -2 -0 -0 -1 -1 -2 -2 -2 -3 -2 -4 -2 -3 -3 -3 -3 -3 -3 -3 -4 -4 -3 -3 -3 -3 -2 -2 -2 -2 -1 -1 -1 -1 -1 -1 -0 -0 -0 -0 0 0 0
-2 -2 -2 -2 -2 -2 -1 -2 -1 -1 -1 -1 -2 -2 -3 -3 -3 -2 -2 -3 -3 -3 -3 -3 -3 -3 -2 -2 -2 -2 -2 -2 -2 -1 -1 -1 -1 -1 -1 -1 -1 -1 -1 -1
-2 -1 -1 -1 -1 -1 -1 -1 -1 -0 -0 -0 -1 -1 -1 -2 -2 -2 -2 -3 -3 -3 -3 -3 -3 -3 -3 -3 -2 -2 -2 -2 -2 -2 -2 -1 -1 -1 -1 -1 -0 -0 -0 -0
-1 -1 -1 0 -0 -1 0 -0 -0 -0 -1 -0 -0 -1 -1 -1 -2 -2 -2 -2 -3 -3 -3 -3 -3 -3 -3 -3 -3 -3 -2 -2 -2 -2 -2 -2 -2 -2 -2 -2 -2 -2 -2 -2
-1 -1 -1 0 0 0 1 1 1 0 0 -0 -0 -1 -1 -1 -1 -2 -2 -2 -2 -3 -3 -3 -3 -3 -3 -3 -3 -3 -3 -3 -3 -2 -2 -2 -2 -2 -2 -2 -2 -2 -2 -2
-1 -1 -1 -0 -0 -4 1 1 1 1 1 1 0 0 -0 -1 -1 -1 -2 -2 -3 -3 -3 -3 -3 -3 -3 -3 -3 -3 -3 -2 -2 -2 -2 -2 -2 -2 -2 -2 -3 -3 -3 -3
-1 -1 -1 -1 -1 1 2 1 1 1 2 1 1 -0 -1 -1 -1 -2 -2 -2 -3 -3 -3 -3 -3 -3 -3 -3 -2 -2 -2 -2 -2 -2 -3 -3 -3 -4 -4 -5 -5 -5 -6 -6
-0 -1 -1 -1 -1 -2 1 1 1 1 1 1 0 -0 -0 -1 -1 -2 -1 -1 -2 -2 -2 -2 -2 -2 -2 -2 -2 -2 -3 -3 -3 -4 -4 -4 -5 -5 -5 -6 -6 -6 -7 -7
-0 -1 -1 -1 -2 1 1 1 0 0 1 1 1 1 0 0 -0 -0 -1 -1 -1 -2 -2 -2 -2 -3 -3 -3 -3 -4 -4 -4 -4 -4 -5 -5 -6 -6 -7 -7 -7 -7 -7 -8
-1 -1 -0 -2 -2 -2 1 1 1 1 1 0 0 -0 -0 -1 -1 -1 -1 -1 -2 -2 -2 -3 -3 -3 -3 -3 -4 -4 -4 -4 -5 -5 -6 -7 -7 -7 -8 -8 -8 -8 -9 -9
-0 1 0 0 1 1 1 0 0 0 -0 -1 -1 -1 -1 -1 -1 -1 -2 -2 -2 -2 -3 -3 -3 -4 -4 -4 -4 -4 -5 -5 -6 -6 -7 -8 -8 -8 -9 -9 -9 -9 -10 -10
-0 -1 -1 -0 2 2 1 1 0 -0 -0 -0 -1 -1 -1 -1 -1 -2 -2 -2 -2 -2 -3 -3 -3 -4 -4 -4 -5 -5 -6 -6 -7 -7 -8 -8 -8 -9 -9 -10 -10 -10 -11 -11
-1 -1 -0 1 2 1 1 2 1 0 0 -0 -1 -1 -1 -1 -1 -2 -2 -2 -2 -3 -3 -3 -4 -4 -5 -5 -5 -6 -6 -7 -8 -8 -9 -9 -9 -10 -10 -10 -11 -12 -12 -12
2 2 1 1 0 1 1 1 1 1 0 0 -0 -1 -1 -1 -2 -2 -2 -2 -3 -3 -4 -4 -4 -5 -5 -5 -6 -7 -7 -8 -9 -9 -9 -10 -10 -10 -11 -11 -12 -12 -13 -13

GFSCGP_700_temp_102.txt.gz
Temp
-1 -0 -0 0 0 0 -0 -0 -0 -0 -1 1 0 1 1 1 1 1 1 0 0 -0 -1 -0 -0 -0 -0 -0 1 1 1 1 1 1 2 2 2 2 2 2 3 3 3 3
-1 -0 -0 -0 -1 -1 -1 -1 -1 -1 -2 -2 -0 2 1 1 0 -0 -0 -0 -1 -1 -1 -1 -1 -1 -1 -1 -1 -0 0 -0 0 0 1 1 1 1 2 2 3 2 2 3
-1 -1 -1 -1 -1 -1 -1 -1 -1 -2 -2 -2 -1 -0 0 0 -1 -1 -1 -1 -1 -2 -1 -1 -1 -1 -2 -2 -2 -2 -1 -1 -1 0 1 1 1 1 2 2 2 2 2 3
-2 -1 -2 -2 -2 -2 -1 -2 -2 -2 -4 -3 -3 -1 -1 -1 -2 -2 -2 -2 -2 -2 -2 -2 -2 -2 -2 -3 -3 -2 -1 -1 -0 -0 0 0 1 1 1 1 2 2 1 1
-2 -2 -2 -2 -2 -2 -3 -2 -3 -3 -4 -4 -3 -4 -1 -1 -2 -3 -3 -3 -3 -3 -2 -1 -2 -2 -2 -3 -2 -2 -1 -1 -1 -0 0 0 1 1 1 1 2 2 2 1
-2 -2 -3 -3 -2 -2 -2 -2 -2 -4 -3 -3 -2 -3 0 -2 -2 -2 -4 -4 -5 -4 -3 -2 -3 -3 -2 -2 -2 -2 -2 -1 -1 -1 -0 0 1 1 1 1 1 0 -0 1
-3 -3 -3 -3 -3 -3 -2 -3 -2 -2 -3 -0 -3 -4 -2 -2 -3 -3 -4 -4 -4 -4 -4 -4 -3 -3 -2 -2 -1 -1 -1 -2 -1 -0 -0 0 -0 0 0 -0 0 0 -0 1
-3 -3 -3 -3 -3 -3 -2 -3 -3 -1 1 1 -3 -2 -2 -2 -3 -3 -3 -4 -4 -4 -4 -3 -3 -3 -2 -3 -2 -2 -1 -1 -1 -1 -1 -1 -2 -1 -1 -1 -0 0 -0 0
-3 -2 -2 -2 -3 -3 -3 -3 -3 -3 -3 -2 -0 -2 -2 -2 -3 -3 -3 -3 -3 -4 -3 -3 -3 -3 -3 -3 -2 -2 -2 -2 -2 -1 -2 -1 -1 -1 -1 -1 -1 -2 -2 -0
-3 -2 -2 -2 -3 -3 -3 -4 -3 -3 -1 1 1 -1 -2 -2 -2 -3 -3 -3 -4 -4 -4 -4 -3 -3 -3 -3 -3 -3 -2 -2 -2 -2 -2 -2 -2 -1 -1 -3 -2 -2 -2 -2
-2 -2 -1 -2 -2 -3 -3 -3 -3 -4 -3 0 1 1 -1 -2 -3 -3 -3 -3 -3 -4 -4 -4 -4 -3 -3 -3 -3 -4 -4 -4 -4 -4 -3 -3 -2 -2 -2 -2 -2 -2 -1 -1
-2 -1 -1 -1 -1 -2 -2 -3 -3 -3 -1 -2 -2 0 -1 -1 -2 -2 -3 -3 -4 -4 -4 -4 -4 -4 -4 -4 -4 -4 -3 -3 -3 -2 -2 -2 -2 -2 -2 -2 -1 -1 -1 -1
-2 -2 -2 -1 -1 -1 -1 -2 -2 -2 -3 -2 -0 2 -1 -2 -2 -2 -2 -3 -3 -3 -3 -3 -3 -3 -3 -3 -3 -3 -3 -2 -2 -2 -2 -2 -2 -2 -1 -1 -1 -1 -1 -1
-1 -1 -1 0 -1 -1 -1 -1 -1 -2 -3 -1 -1 -0 -0 -1 -1 -2 -2 -2 -2 -2 -2 -2 -2 -3 -3 -3 -3 -3 -3 -3 -3 -2 -2 -2 -2 -2 -2 -2 -2 -2 -1 -1
-2 -2 -1 -1 -1 -1 -0 -0 -1 -1 -1 -2 -0 0 -0 -0 -1 -1 -1 -2 -2 -2 -2 -2 -2 -3 -3 -3 -3 -2 -2 -2 -2 -2 -2 -2 -2 -2 -2 -2 -2 -2 -2 -2
-2 -2 -1 1 1 0 0 0 -0 -0 -0 0 0 1 0 -0 -1 -1 -1 -1 -2 -2 -2 -2 -3 -3 -3 -3 -3 -2 -2 -2 -2 -3 -3 -3 -3 -3 -3 -2 -2 -3 -2 -2
-2 -2 -2 -1 0 -0 -0 2 2 2 1 1 0 1 1 0 -0 -1 -2 -2 -2 -2 -2 -3 -3 -2 -2 -3 -3 -3 -3 -3 -3 -3 -3 -2 -2 -2 -2 -2 -2 -2 -2 -2
-2 -2 -2 -2 -1 -0 2 2 2 2 1 1 1 1 0 -0 -0 -1 -1 -1 -2 -2 -2 -2 -2 -3 -3 -3 -4 -4 -4 -3 -3 -3 -3 -3 -3 -3 -3 -3 -2 -3 -3 -3
-1 -2 -2 -2 -2 1 2 2 2 1 2 1 1 1 0 0 -0 -0 -1 -1 -2 -2 -2 -3 -3 -3 -3 -4 -4 -4 -4 -4 -4 -4 -3 -3 -3 -3 -3 -3 -3 -4 -4 -4
-1 -2 -3 -4 -2 2 2 2 2 1 1 2 2 1 1 0 -0 -1 -1 -1 -2 -2 -3 -3 -3 -3 -3 -3 -3 -3 -3 -3 -3 -4 -4 -4 -4 -4 -4 -4 -5 -5 -5 -6
-1 -2 -3 -4 -3 1 2 2 1 1 2 1 1 1 0 -0 -1 -1 -1 -2 -2 -2 -2 -2 -3 -3 -3 -3 -3 -3 -3 -3 -4 -4 -4 -5 -5 -5 -5 -6 -6 -6 -7 -7
-0 -0 -1 -3 -4 -1 3 2 2 1 1 0 -0 -0 -0 -1 -1 -1 -1 -1 -1 -2 -2 -2 -3 -3 -3 -3 -3 -3 -4 -4 -4 -5 -5 -5 -5 -6 -6 -7 -7 -8 -8 -8
-0 1 1 1 2 3 2 2 1 1 1 1 0 0 -0 -1 -1 -1 -1 -1 -2 -2 -2 -2 -3 -3 -3 -4 -4 -4 -4 -5 -5 -5 -5 -6 -6 -7 -7 -8 -8 -9 -9 -9
0 0 -0 0 3 2 1 1 1 0 0 -0 -1 -1 -1 -1 -1 -1 -1 -2 -2 -2 -3 -3 -3 -3 -4 -4 -4 -4 -5 -5 -5 -5 -6 -6 -7 -8 -8 -9 -9 -9 -10 -10
0 1 2 2 4 2 2 2 1 1 1 0 -0 -1 -1 -1 -1 -1 -2 -2 -2 -2 -2 -2 -2 -3 -3 -4 -4 -5 -5 -6 -6 -6 -7 -7 -8 -9 -9 -9 -10 -10 -11 -11
4 4 3 3 2 1 1 1 0 -0 -0 -0 0 -1 -1 -1 -1 -2 -2 -2 -2 -2 -2 -3 -3 -4 -4 -4 -5 -6 -6 -6 -7 -7 -8 -8 -9 -9 -9 -10 -10 -11 -11 -12

GFSCGP_700_temp_105.txt.gz
Temp
-1 -0 -0 0 1 2 1 1 1 0 1 1 2 3 3 2 1 2 1 1 1 1 1 1 0 0 0 -0 -0 0 1 1 1 1 1 1 1 2 2 2 2 2 2 3
-1 -1 0 0 1 1 1 0 -0 -0 1 0 1 2 2 1 1 0 0 0 1 0 0 -1 -1 -0 -0 -1 -0 -0 -1 -0 0 -0 0 0 0 2 2 2 2 2 2 2
-3 -1 -0 -0 -0 -0 -0 -1 -2 -2 -1 -1 -2 1 1 1 1 1 0 0 -0 -0 0 -0 -1 -1 -1 -1 -1 -1 -1 -1 -1 -0 -1 -1 -0 1 1 1 1 1 2 2
-1 -1 -1 -1 -1 -1 -2 -1 -1 -2 -3 -1 -2 1 0 -1 -1 -1 -3 -0 -1 -1 -1 -0 -1 -1 -2 -2 -2 -3 -3 -3 -2 -1 -1 -1 0 -0 0 0 1 1 2 2
-2 -2 -2 -2 -1 -1 -3 -1 -3 -4 -3 -4 -2 -3 1 -0 -1 -2 -3 -2 -2 -2 -0 -0 -1 -1 -1 -2 -3 -3 -3 -2 -2 -2 -1 -1 -1 -1 -0 0 1 1 1 1
-2 -2 -2 -3 -2 -2 -2 -3 -2 -3 -4 -2 -0 -1 1 -0 -2 -1 -2 -4 -4 -3 -2 -1 -1 -2 -2 -2 -2 -2 -2 -2 -2 -2 -1 -1 -1 -1 -0 0 1 1 1 1
-2 -2 -2 -2 -3 -2 -2 -2 -1 -1 -1 1 -1 -1 -0 -2 -1 -2 -3 -3 -3 -2 -3 -3 -3 -3 -3 -3 -2 -2 -2 -2 -2 -2 -2 -2 -1 -1 -1 0 1 1 -0 0
-3 -3 -3 -3 -3 -3 -3 -3 -2 0 1 1 -2 -2 0 -1 -1 -2 -2 -2 -2 -2 -3 -3 -3 -3 -3 -2 -3 -2 -2 -1 -1 -1 -1 -1 -1 -0 0 -1 -1 -1 -0 -0
-3 -3 -2 -2 -2 -3 -3 -3 -3 -2 -2 -2 0 -1 -1 -1 -2 -2 -2 -2 -2 -2 -2 -3 -3 -3 -3 -3 -3 -2 -2 -2 -2 -2 -3 -2 -2 -1 -1 -1 -1 -2 -1 -2
-3 -2 -2 -2 -2 -2 -3 -3 -3 -3 -1 1 2 1 0 -0 -0 -1 -1 -2 -2 -2 -2 -4 -4 -4 -4 -4 -3 -3 -3 -3 -3 -3 -2 -2 -2 -2 -2 -2 -3 -3 -2 -2
-3 -2 -2 -1 -1 -1 -3 -3 -3 -3 -2 -0 3 3 1 1 0 0 -0 -1 -1 -1 -3 -4 -4 -3 -3 -3 -3 -3 -4 -4 -4 -4 -4 -4 -3 -3 -3 -3 -2 -2 -1 -1
-1 -1 -1 -1 -1 -1 -2 -2 -2 -1 1 -0 0 2 1 1 0 1 -0 -1 -2 -3 -3 -3 -3 -2 -2 -3 -3 -3 -3 -3 -3 -3 -3 -2 -2 -2 -2 -2 -2 -2 -1 -1
-2 -2 -1 -1 -1 -1 -2 -2 -2 -2 -3 -1 1 3 2 1 0 -0 -1 -1 -2 -2 -2 -3 -3 -3 -3 -3 -3 -3 -3 -3 -3 -3 -2 -2 -2 -2 -2 -2 -2 -2 -2 -2
-1 -2 -2 0 -0 -1 -1 -2 -2 -3 -2 1 1 2 1 1 0 -0 -0 -1 -1 -2 -2 -3 -3 -3 -3 -3 -3 -3 -3 -3 -3 -3 -2 -2 -2 -2 -2 -1 -1 -1 -2 -2
-1 -2 -1 0 0 -0 -1 -0 -2 -3 -0 -1 2 0 0 -1 0 0 -0 -1 -1 -2 -2 -2 -3 -3 -3 -3 -3 -3 -3 -3 -3 -3 -3 -3 -2 -2 -2 -2 -2 -2 -2 -2
-1 -1 -1 1 1 1 1 1 1 -1 -2 -1 -0 2 1 1 1 0 -0 -1 -1 -1 -2 -2 -3 -3 -3 -3 -3 -3 -3 -3 -2 -2 -3 -3 -3 -3 -3 -3 -3 -3 -3 -3
-1 -1 -2 -2 -0 -0 0 3 3 2 2 2 -0 1 1 1 1 0 -1 -1 -1 -2 -2 -2 -3 -3 -3 -3 -3 -3 -3 -3 -3 -4 -4 -3 -3 -3 -3 -3 -3 -3 -3 -2
-2 -3 -3 -2 -1 0 3 3 3 3 3 2 2 2 2 1 1 0 -0 -0 -1 -2 -2 -2 -3 -2 -3 -3 -3 -3 -4 -4 -4 -3 -3 -3 -4 -4 -4 -4 -4 -3 -3 -3
-1 -3 -3 -3 -0 2 3 3 3 2 3 3 3 2 1 1 0 1 -0 -1 -1 -2 -2 -2 -2 -2 -3 -3 -4 -4 -3 -3 -3 -3 -3 -3 -3 -3 -3 -3 -3 -3 -4 -4
-1 -2 -3 -2 -1 2 3 3 2 2 2 3 2 2 1 1 1 -1 -0 -1 -1 -1 -2 -2 -3 -3 -3 -3 -3 -3 -3 -3 -3 -4 -4 -4 -4 -4 -4 -5 -5 -5 -5 -5
-1 -2 -3 -3 -2 -0 2 3 2 1 3 2 1 1 1 0 -0 -0 -1 -1 -1 -2 -2 -2 -2 -2 -2 -3 -3 -4 -4 -4 -4 -4 -4 -4 -5 -5 -5 -5 -6 -6 -6 -7
-0 -1 -3 -3 -2 -1 3 2 2 2 2 1 1 0 -0 -0 -1 -1 -1 -1 -1 -1 -1 -2 -2 -3 -3 -3 -3 -3 -4 -4 -4 -4 -4 -5 -6 -6 -6 -6 -7 -7 -8 -8
0 1 1 1 2 3 3 2 1 1 0 0 0 -0 -0 -0 -1 -1 -1 -1 -1 -1 -2 -2 -2 -3 -3 -3 -3 -3 -4 -4 -4 -5 -6 -6 -6 -7 -7 -8 -8 -8 -9 -9
0 0 0 1 3 3 2 2 1 0 -0 -1 -0 -1 -0 -1 -1 -1 -1 -1 -1 -2 -2 -2 -3 -3 -3 -3 -3 -3 -4 -4 -5 -6 -6 -7 -7 -7 -8 -8 -9 -9 -9 -10
-1 0 2 2 3 2 2 2 1 2 1 0 0 0 1 0 -0 -1 -1 -1 -1 -2 -2 -2 -2 -3 -3 -3 -4 -4 -5 -5 -6 -7 -7 -7 -8 -8 -9 -9 -9 -10 -10 -11
4 4 3 3 2 1 1 2 1 1 1 1 0 0 1 1 -0 -1 -1 -1 -1 -2 -2 -2 -3 -3 -3 -4 -4 -5 -5 -6 -7 -7 -7 -8 -8 -9 -9 -9 -10 -11 -11 -11

GFSCGP_700_temp_108.txt.gz
Temp
-0 -0 0 0 1 2 1 2 2 1 1 2 3 3 4 3 2 -0 2 2 2 2 2 2 2 2 2 1 1 1 1 1 1 1 1 1 1 2 2 2 2 3 2 2
-1 -2 0 1 1 1 1 1 0 -0 1 1 2 3 3 3 1 1 1 1 1 1 1 1 1 1 1 1 1 0 0 -0 -0 -0 0 0 0 1 0 1 1 1 2 2
-2 -0 -0 0 1 1 0 -1 -1 -1 0 0 -0 2 2 2 2 1 0 1 1 0 1 1 1 1 0 0 -0 -0 -1 -1 -1 -2 -1 -1 -0 -1 -0 0 1 1 1 1
-1 -0 -0 -0 -0 -0 -2 -1 -1 -1 -2 -1 -1 -2 1 1 1 0 -0 1 1 0 0 1 1 1 1 0 0 -1 -2 -2 -2 -3 -2 -2 -2 -1 -1 -1 0 0 0 1
-1 -1 -1 -1 -1 -1 -3 -1 -2 -3 -4 -4 -2 -3 1 1 0 -1 1 -0 -1 -0 1 1 1 1 1 1 -0 -1 -2 -2 -3 -3 -2 -2 -2 -2 -1 -1 -1 -1 -0 0
-2 -1 -1 -2 -2 -2 -2 -2 -3 -3 -3 -3 -1 -1 1 1 1 1 -1 -0 0 0 0 1 0 0 0 -0 -1 -1 -2 -2 -2 -2 -2 -2 -2 -2 -2 -1 -1 -1 -1 -0
-3 -2 -2 -2 -3 -2 -2 -3 -1 -2 -1 -3 -0 -1 0 0 2 0 -0 -1 0 -0 -1 -1 -1 -1 -0 -1 -1 -2 -2 -2 -2 -3 -2 -3 -2 -2 -1 -1 -1 -0 0 0
-3 -3 -2 -3 -2 -3 -3 -3 -2 -2 -0 -1 -1 -1 2 1 1 -0 -1 -0 -1 -1 -1 -1 -2 -2 -1 -1 -1 -3 -3 -3 -3 -3 -2 -2 -1 -1 -1 -1 -1 -1 -0 -0
-3 -3 -2 -2 -3 -3 -2 -3 -3 -2 -1 -2 -0 1 1 1 0 1 1 0 -0 -1 -1 -1 -2 -2 -2 -3 -4 -4 -3 -3 -3 -3 -3 -3 -2 -2 -1 -1 -1 -1 -2 -2
-2 -2 -2 -2 -2 -2 -3 -3 -2 -2 -2 -1 2 1 2 2 1 1 1 0 -0 -1 -1 -1 -2 -2 -3 -3 -3 -3 -3 -3 -3 -3 -3 -3 -3 -3 -2 -2 -2 -2 -2 -3
-3 -2 -2 -2 -1 -2 -3 -3 -3 -2 -2 -1 -1 2 2 2 2 1 1 1 0 -0 -1 -2 -3 -3 -3 -3 -3 -4 -3 -3 -3 -3 -3 -3 -2 -2 -2 -3 -2 -2 -2 -2
-2 -2 -1 -1 -1 -1 -1 -2 -2 -1 -1 -1 -0 -0 2 2 2 1 1 1 0 -0 -1 -2 -2 -2 -2 -3 -3 -3 -3 -3 -3 -3 -3 -3 -2 -2 -2 -2 -2 -2 -2 -2
-1 -2 -1 -1 -1 -1 -0 -0 -1 -2 -2 -2 -2 1 2 2 1 1 1 0 0 -1 -1 -1 -2 -2 -3 -3 -3 -3 -3 -3 -3 -3 -3 -3 -2 -2 -2 -2 -2 -2 -2 -2
0 -0 -1 -0 -0 -1 -1 -1 -1 -2 -2 -1 0 1 1 1 1 1 1 0 0 -0 -1 -1 -2 -2 -3 -3 -3 -3 -3 -3 -3 -3 -2 -2 -2 -2 -2 -2 -2 -2 -2 -2
0 0 -1 0 1 1 0 -0 -1 -2 0 -1 2 1 2 0 1 1 1 0 -0 -1 -1 -2 -2 -3 -3 -3 -3 -3 -3 -3 -3 -3 -3 -3 -3 -3 -3 -3 -3 -3 -3 -3
-0 -0 -0 2 2 1 1 1 1 0 -1 -1 1 3 2 2 1 2 1 0 -0 -1 -1 -2 -2 -2 -3 -2 -3 -2 -3 -3 -3 -3 -3 -3 -3 -3 -3 -3 -3 -3 -3 -4
-1 -1 -1 0 -0 -0 1 4 4 3 2 2 0 4 1 1 1 1 1 0 0 -1 -1 -2 -2 -2 -1 -2 -2 -2 -2 -3 -3 -3 -3 -3 -3 -3 -3 -3 -3 -4 -4 -4
-2 -2 -2 -2 -1 -4 3 3 3 4 4 2 2 3 1 1 1 1 0 0 -0 -1 -1 -1 -1 -1 -1 -2 -2 -2 -3 -3 -3 -3 -3 -3 -4 -4 -4 -4 -4 -5 -5 -5
-1 -2 -3 -3 -2 1 4 4 3 3 4 3 3 3 2 1 2 1 0 0 0 -0 0 -0 -0 -1 -1 -2 -3 -3 -3 -3 -3 -3 -3 -4 -4 -4 -5 -5 -5 -5 -5 -5
-1 -2 -3 -3 -2 -2 2 2 3 3 3 3 3 3 2 2 2 2 2 1 1 0 -0 -0 -1 -1 -2 -2 -2 -3 -3 -3 -3 -4 -4 -4 -5 -5 -5 -5 -6 -6 -6 -6
-0 -1 -2 -3 -3 0 3 3 2 2 3 3 3 2 2 2 1 1 1 1 1 -0 -1 -1 -2 -2 -2 -2 -3 -3 -3 -3 -4 -4 -4 -5 -5 -5 -6 -6 -6 -6 -7 -7
0 0 -2 -4 -3 -2 3 3 3 3 3 2 2 2 1 1 1 1 1 0 0 -0 -1 -1 -1 -2 -2 -2 -3 -3 -3 -4 -4 -4 -4 -5 -5 -6 -6 -7 -7 -7 -8 -8
-0 2 0 1 4 4 3 3 2 2 1 1 1 1 0 0 0 -0 -0 -0 -1 -1 -1 -1 -2 -2 -3 -3 -3 -3 -3 -4 -4 -4 -5 -6 -6 -7 -7 -7 -8 -8 -9 -9
0 1 1 1 4 4 3 3 2 2 2 1 2 2 1 1 0 0 -1 -1 -1 -1 -1 -2 -2 -2 -3 -3 -3 -4 -4 -4 -4 -5 -6 -6 -7 -7 -7 -8 -8 -9 -9 -9
0 1 2 4 6 4 4 3 3 2 2 3 2 2 1 1 1 0 -0 -2 -2 -2 -2 -2 -2 -3 -3 -3 -3 -4 -4 -4 -5 -5 -6 -7 -7 -7 -8 -9 -9 -9 -10 -10
4 4 3 4 4 3 4 3 2 2 2 1 1 1 0 0 0 0 0 -1 -2 -2 -2 -2 -2 -3 -3 -3 -4 -4 -4 -5 -5 -6 -6 -7 -8 -8 -9 -9 -9 -10 -10 -11

GFSCGP_700_temp_111.txt.gz
Temp
-1 0 0 1 1 1 1 1 2 1 3 2 3 4 5 3 3 2 3 3 3 3 2 2 2 2 2 2 2 2 1 1 1 2 2 2 2 2 2 2 1 2 2 2
-0 -0 0 1 1 1 1 1 1 1 1 2 3 4 4 4 4 3 2 2 3 2 2 2 1 1 2 2 2 2 1 1 1 1 1 1 1 0 1 0 0 1 1 2
-0 -0 -0 -0 0 1 -0 0 1 0 2 1 3 3 4 4 3 2 2 3 2 2 1 1 2 2 2 2 2 2 1 1 0 -0 0 -0 -2 -1 -1 -1 -1 -1 0 1
-1 -1 -0 0 0 0 0 -1 -1 -1 1 0 0 -1 3 3 2 2 3 2 1 1 1 1 1 2 2 2 2 1 1 0 -0 -1 -1 -1 -2 -2 -2 -2 -1 -1 -1 -0
-1 -1 -1 -0 -0 -0 -0 -1 -1 -1 -1 -2 -0 -2 2 1 1 1 1 1 0 -0 1 2 2 2 2 2 1 1 -0 -0 -0 -2 -2 -1 -2 -2 -2 -2 -2 -1 -1 -1
-1 -1 -1 -0 -1 -1 -1 -1 -1 -2 -3 -5 -0 -1 2 1 1 1 1 0 -0 -0 0 1 1 1 1 1 1 0 -0 -1 -1 -1 -1 -1 -2 -3 -2 -2 -2 -2 -2 -2
-3 -2 -2 -2 -1 -1 -1 -1 -2 -5 -6 -5 -1 -2 2 2 2 1 1 0 0 0 0 0 0 0 0 1 1 0 -0 -1 -2 -1 -1 -2 -3 -2 -2 -3 -2 -1 -1 -1
-3 -2 -2 -2 -2 -3 -4 -3 -2 -7 -6 -5 -1 -1 2 2 2 1 1 1 1 1 1 1 1 1 0 0 0 0 -2 -3 -4 -4 -4 -2 -2 -2 -2 -2 -2 -2 -1 -1
-2 -3 -2 -3 -3 -3 -3 -3 -3 -3 -2 -3 -1 1 3 2 2 2 2 2 2 1 1 1 1 -0 -1 -1 -2 -2 -3 -3 -3 -4 -4 -4 -4 -4 -3 -3 -3 -3 -3 -2
-2 -2 -3 -2 -3 -3 -3 -3 -3 -3 -6 -2 -1 0 2 2 2 2 2 2 2 2 1 1 1 -0 -2 -2 -2 -2 -2 -2 -2 -2 -3 -3 -3 -3 -3 -3 -3 -3 -4 -3
-2 -2 -3 -3 -2 -2 -3 -3 -3 -2 -2 -3 -4 0 2 2 2 2 2 2 2 2 1 1 0 -1 -2 -2 -1 -2 -2 -2 -3 -3 -3 -3 -3 -3 -3 -3 -3 -3 -3 -3
-2 -2 -2 -1 -1 -2 -2 -1 -2 -2 -2 -1 -1 -0 2 2 2 2 2 1 1 1 1 0 -0 -1 -1 -1 -2 -2 -3 -3 -3 -3 -3 -3 -3 -3 -3 -3 -3 -3 -2 -2
-1 -1 -1 -2 -1 -1 -2 -1 -1 -2 -2 -2 -3 1 2 2 1 1 1 1 1 0 -0 -1 -1 -1 -1 -2 -3 -3 -3 -3 -3 -3 -3 -3 -3 -3 -2 -3 -3 -3 -3 -3
-1 -0 0 0 1 0 -1 0 -0 -1 -2 -1 -0 3 3 2 1 1 1 0 0 0 -0 -1 -1 -1 -2 -2 -3 -3 -3 -2 -2 -2 -2 -2 -2 -2 -2 -2 -2 -3 -3 -3
-0 0 0 1 1 0 -0 -0 -1 -2 -0 -1 2 1 2 1 1 1 1 1 0 0 0 -0 -1 -1 -1 -2 -2 -2 -2 -2 -3 -3 -3 -3 -3 -3 -3 -3 -3 -3 -3 -3
-1 -1 -1 1 0 -0 -0 1 0 -1 -1 -1 0 3 3 2 2 1 2 1 1 1 0 -0 -1 -0 -1 -1 -2 -2 -3 -3 -3 -3 -3 -3 -3 -3 -3 -3 -3 -4 -4 -4
-1 -1 -1 0 0 1 2 3 3 3 3 3 1 6 3 3 3 3 2 2 1 1 0 -0 -0 -1 -2 -2 -2 -3 -2 -3 -3 -3 -3 -3 -3 -3 -4 -4 -4 -5 -5 -5
-2 -2 -2 -1 -0 -4 4 4 4 4 4 4 5 5 4 3 3 3 2 2 2 1 1 1 0 -1 -1 -2 -2 -2 -2 -2 -3 -3 -3 -3 -3 -4 -4 -5 -5 -6 -6 -6
-1 -2 -2 -2 -3 2 5 4 4 4 6 5 5 4 4 3 3 4 2 2 2 2 2 1 0 -0 -1 -2 -2 -2 -2 -3 -3 -3 -3 -4 -4 -4 -4 -5 -5 -6 -6 -6
-1 -2 -3 -4 -3 -3 5 4 3 3 5 6 5 5 4 3 2 3 1 1 1 1 0 0 -0 -1 -1 -2 -2 -2 -2 -3 -3 -3 -4 -4 -4 -4 -5 -5 -6 -6 -6 -6
-0 -2 -3 -3 -3 1 5 3 2 2 4 4 3 3 3 2 2 2 2 1 1 0 0 -0 -1 -1 -1 -2 -2 -2 -3 -3 -4 -4 -4 -4 -4 -5 -5 -6 -6 -6 -6 -7
1 0 -1 -4 -5 -1 5 4 3 4 3 2 2 1 1 1 1 1 1 0 0 0 -0 -1 -2 -2 -2 -2 -3 -3 -3 -3 -4 -4 -4 -4 -5 -5 -5 -6 -6 -7 -7 -8
-0 2 1 2 5 5 4 3 2 2 2 1 1 0 0 0 0 -0 -1 -1 -1 -1 -1 -1 -2 -2 -2 -3 -3 -3 -3 -4 -4 -4 -4 -5 -5 -5 -6 -6 -7 -7 -8 -8
-0 0 0 0 6 3 2 2 2 2 2 1 0 0 0 0 0 -0 -0 -1 -1 -2 -2 -2 -2 -2 -2 -3 -3 -3 -3 -4 -4 -4 -5 -5 -5 -6 -6 -7 -7 -8 -8 -9
1 1 0 0 3 2 2 1 2 1 0 0 0 0 1 1 0 -0 -0 -1 -1 -2 -3 -3 -3 -3 -3 -3 -3 -3 -4 -4 -4 -5 -5 -5 -5 -6 -7 -7 -8 -9 -9 -9
4 4 2 2 2 1 2 2 1 1 0 0 1 1 0 -0 0 -0 -1 -1 -1 -1 -2 -3 -2 -3 -2 -3 -3 -3 -4 -4 -5 -5 -5 -5 -6 -6 -7 -8 -9 -9 -10 -10